Year,Month,Day,Hour,Minute,Value (Times are PST for temperature in C)
2015,06,27,00,00,18.40
2015,06,27,00,01,18.40
2015,06,27,00,02,18.40
2015,06,27,00,03,18.40
2015,06,27,00,04,18.40
2015,06,27,00,05,18.40
2015,06,27,00,06,18.30
2015,06,27,00,07,18.30
2015,06,27,00,08,18.30
2015,06,27,00,09,18.30
2015,06,27,00,10,18.30
2015,06,27,00,11,18.30
2015,06,27,00,12,18.20
2015,06,27,00,13,18.20
2015,06,27,00,14,18.20
2015,06,27,00,15,18.20
2015,06,27,00,16,18.10
2015,06,27,00,17,18.10
2015,06,27,00,18,18.00
2015,06,27,00,19,18.00
2015,06,27,00,20,17.90
2015,06,27,00,21,17.90
2015,06,27,00,22,17.90
2015,06,27,00,23,17.80
2015,06,27,00,24,17.80
2015,06,27,00,25,17.80
2015,06,27,00,26,17.80
2015,06,27,00,27,17.70
2015,06,27,00,28,17.70
2015,06,27,00,29,17.70
2015,06,27,00,30,17.70
2015,06,27,00,31,17.70
2015,06,27,00,32,17.70
2015,06,27,00,33,17.70
2015,06,27,00,34,17.60
2015,06,27,00,35,17.60
2015,06,27,00,36,17.70
2015,06,27,00,37,17.70
2015,06,27,00,38,17.60
2015,06,27,00,39,17.70
2015,06,27,00,40,17.70
2015,06,27,00,41,17.70
2015,06,27,00,42,17.70
2015,06,27,00,43,17.70
2015,06,27,00,44,17.70
2015,06,27,00,45,17.70
2015,06,27,00,46,17.70
2015,06,27,00,47,17.70
2015,06,27,00,48,17.70
2015,06,27,00,49,17.70
2015,06,27,00,50,17.70
2015,06,27,00,51,17.70
2015,06,27,00,52,17.70
2015,06,27,00,53,17.70
2015,06,27,00,54,17.70
2015,06,27,00,55,17.70
2015,06,27,00,56,17.60
2015,06,27,00,57,17.60
2015,06,27,00,58,17.60
2015,06,27,00,59,17.60
2015,06,27,01,00,17.60
2015,06,27,01,01,17.50
2015,06,27,01,02,17.50
2015,06,27,01,03,17.50
2015,06,27,01,04,17.50
2015,06,27,01,05,17.50
2015,06,27,01,06,17.50
2015,06,27,01,07,17.50
2015,06,27,01,08,17.50
2015,06,27,01,09,17.50
2015,06,27,01,10,17.50
2015,06,27,01,11,17.50
2015,06,27,01,12,17.50
2015,06,27,01,13,17.50
2015,06,27,01,14,17.50
2015,06,27,01,15,17.50
2015,06,27,01,16,17.50
2015,06,27,01,17,17.50
2015,06,27,01,18,17.60
2015,06,27,01,19,17.60
2015,06,27,01,20,17.60
2015,06,27,01,21,17.60
2015,06,27,01,22,17.50
2015,06,27,01,23,17.50
2015,06,27,01,24,17.50
2015,06,27,01,25,17.40
2015,06,27,01,26,17.40
2015,06,27,01,27,17.30
2015,06,27,01,28,17.30
2015,06,27,01,29,17.30
2015,06,27,01,30,17.20
2015,06,27,01,31,17.20
2015,06,27,01,32,17.20
2015,06,27,01,33,17.10
2015,06,27,01,34,17.10
2015,06,27,01,35,17.00
2015,06,27,01,36,17.00
2015,06,27,01,37,16.90
2015,06,27,01,38,16.90
2015,06,27,01,39,16.80
2015,06,27,01,40,16.80
2015,06,27,01,41,16.70
2015,06,27,01,42,16.60
2015,06,27,01,43,16.60
2015,06,27,01,44,16.50
2015,06,27,01,45,16.50
2015,06,27,01,46,16.50
2015,06,27,01,47,16.40
2015,06,27,01,48,16.40
2015,06,27,01,49,16.40
2015,06,27,01,50,16.40
2015,06,27,01,51,16.40
2015,06,27,01,52,16.50
2015,06,27,01,53,16.50
2015,06,27,01,54,16.50
2015,06,27,01,55,16.50
2015,06,27,01,56,16.60
2015,06,27,01,57,16.60
2015,06,27,01,58,16.60
2015,06,27,01,59,16.70
2015,06,27,02,00,16.70
2015,06,27,02,01,16.60
2015,06,27,02,02,16.60
2015,06,27,02,03,16.60
2015,06,27,02,04,16.60
2015,06,27,02,05,16.60
2015,06,27,02,06,16.60
2015,06,27,02,07,16.60
2015,06,27,02,08,16.60
2015,06,27,02,09,16.60
2015,06,27,02,10,16.60
2015,06,27,02,11,16.60
2015,06,27,02,12,16.60
2015,06,27,02,13,16.60
2015,06,27,02,14,16.60
2015,06,27,02,15,16.60
2015,06,27,02,16,16.60
2015,06,27,02,17,16.60
2015,06,27,02,18,16.60
2015,06,27,02,19,16.50
2015,06,27,02,20,16.50
2015,06,27,02,21,16.40
2015,06,27,02,22,16.40
2015,06,27,02,23,16.40
2015,06,27,02,24,16.30
2015,06,27,02,25,16.30
2015,06,27,02,26,16.30
2015,06,27,02,27,16.30
2015,06,27,02,28,16.30
2015,06,27,02,29,16.30
2015,06,27,02,30,16.20
2015,06,27,02,31,16.20
2015,06,27,02,32,16.20
2015,06,27,02,33,16.20
2015,06,27,02,34,16.20
2015,06,27,02,35,16.20
2015,06,27,02,36,16.20
2015,06,27,02,37,16.20
2015,06,27,02,38,16.20
2015,06,27,02,39,16.20
2015,06,27,02,40,16.20
2015,06,27,02,41,16.20
2015,06,27,02,42,16.20
2015,06,27,02,43,16.20
2015,06,27,02,44,16.20
2015,06,27,02,45,16.10
2015,06,27,02,46,16.10
2015,06,27,02,47,16.20
2015,06,27,02,48,16.20
2015,06,27,02,49,16.20
2015,06,27,02,50,16.20
2015,06,27,02,51,16.10
2015,06,27,02,52,16.10
2015,06,27,02,53,16.10
2015,06,27,02,54,16.10
2015,06,27,02,55,16.10
2015,06,27,02,56,16.10
2015,06,27,02,57,16.10
2015,06,27,02,58,16.00
2015,06,27,02,59,16.00
2015,06,27,03,00,16.00
2015,06,27,03,01,15.90
2015,06,27,03,02,15.90
2015,06,27,03,03,15.90
2015,06,27,03,04,15.90
2015,06,27,03,05,15.90
2015,06,27,03,06,15.90
2015,06,27,03,07,15.80
2015,06,27,03,08,15.80
2015,06,27,03,09,15.80
2015,06,27,03,10,15.80
2015,06,27,03,11,15.80
2015,06,27,03,12,15.70
2015,06,27,03,13,15.70
2015,06,27,03,14,15.70
2015,06,27,03,15,15.70
2015,06,27,03,16,15.70
2015,06,27,03,17,15.70
2015,06,27,03,18,15.70
2015,06,27,03,19,15.70
2015,06,27,03,20,15.70
2015,06,27,03,21,15.70
2015,06,27,03,22,15.70
2015,06,27,03,23,15.70
2015,06,27,03,24,15.70
2015,06,27,03,25,15.70
2015,06,27,03,26,15.70
2015,06,27,03,27,15.70
2015,06,27,03,28,15.70
2015,06,27,03,29,15.80
2015,06,27,03,30,15.80
2015,06,27,03,31,15.80
2015,06,27,03,32,15.80
2015,06,27,03,33,15.80
2015,06,27,03,34,15.80
2015,06,27,03,35,15.80
2015,06,27,03,36,15.70
2015,06,27,03,37,15.70
2015,06,27,03,38,15.70
2015,06,27,03,39,15.70
2015,06,27,03,40,15.70
2015,06,27,03,41,15.60
2015,06,27,03,42,15.60
2015,06,27,03,43,15.60
2015,06,27,03,44,15.60
2015,06,27,03,45,15.60
2015,06,27,03,46,15.50
2015,06,27,03,47,15.50
2015,06,27,03,48,15.50
2015,06,27,03,49,15.50
2015,06,27,03,50,15.40
2015,06,27,03,51,15.40
2015,06,27,03,52,15.40
2015,06,27,03,53,15.40
2015,06,27,03,54,15.40
2015,06,27,03,55,15.40
2015,06,27,03,56,15.50
2015,06,27,03,57,15.50
2015,06,27,03,58,15.50
2015,06,27,03,59,15.50
2015,06,27,04,00,15.50
2015,06,27,04,01,15.50
2015,06,27,04,02,15.50
2015,06,27,04,03,15.50
2015,06,27,04,04,15.40
2015,06,27,04,05,15.40
2015,06,27,04,06,15.40
2015,06,27,04,07,15.40
2015,06,27,04,08,15.40
2015,06,27,04,09,15.40
2015,06,27,04,10,15.40
2015,06,27,04,11,15.40
2015,06,27,04,12,15.40
2015,06,27,04,13,15.40
2015,06,27,04,14,15.40
2015,06,27,04,15,15.50
2015,06,27,04,16,15.50
2015,06,27,04,17,15.50
2015,06,27,04,18,15.50
2015,06,27,04,19,15.50
2015,06,27,04,20,15.50
2015,06,27,04,21,15.40
2015,06,27,04,22,15.40
2015,06,27,04,23,15.40
2015,06,27,04,24,15.40
2015,06,27,04,25,15.40
2015,06,27,04,26,15.40
2015,06,27,04,27,15.40
2015,06,27,04,28,15.40
2015,06,27,04,29,15.40
2015,06,27,04,30,15.40
2015,06,27,04,31,15.40
2015,06,27,04,32,15.40
2015,06,27,04,33,15.40
2015,06,27,04,34,15.40
2015,06,27,04,35,15.40
2015,06,27,04,36,15.40
2015,06,27,04,37,15.50
2015,06,27,04,38,15.50
2015,06,27,04,39,15.50
2015,06,27,04,40,15.50
2015,06,27,04,41,15.50
2015,06,27,04,42,15.50
2015,06,27,04,43,15.50
2015,06,27,04,44,15.50
2015,06,27,04,45,15.40
2015,06,27,04,46,15.40
2015,06,27,04,47,15.30
2015,06,27,04,48,15.30
2015,06,27,04,49,15.30
2015,06,27,04,50,15.20
2015,06,27,04,51,15.20
2015,06,27,04,52,15.20
2015,06,27,04,53,15.20
2015,06,27,04,54,15.20
2015,06,27,04,55,15.10
2015,06,27,04,56,15.10
2015,06,27,04,57,15.10
2015,06,27,04,58,15.00
2015,06,27,04,59,15.00
2015,06,27,05,00,15.00
2015,06,27,05,01,14.90
2015,06,27,05,02,14.90
2015,06,27,05,03,14.90
2015,06,27,05,04,14.90
2015,06,27,05,05,14.90
2015,06,27,05,06,14.80
2015,06,27,05,07,14.80
2015,06,27,05,08,14.80
2015,06,27,05,09,14.80
2015,06,27,05,10,14.80
2015,06,27,05,11,14.80
2015,06,27,05,12,14.80
2015,06,27,05,13,14.80
2015,06,27,05,14,14.80
2015,06,27,05,15,14.80
2015,06,27,05,16,14.80
2015,06,27,05,17,14.70
2015,06,27,05,18,14.70
2015,06,27,05,19,14.70
2015,06,27,05,20,14.70
2015,06,27,05,21,14.70
2015,06,27,05,22,14.70
2015,06,27,05,23,14.70
2015,06,27,05,24,14.70
2015,06,27,05,25,14.80
2015,06,27,05,26,14.80
2015,06,27,05,27,14.80
2015,06,27,05,28,14.80
2015,06,27,05,29,14.90
2015,06,27,05,30,14.90
2015,06,27,05,31,14.90
2015,06,27,05,32,14.90
2015,06,27,05,33,14.90
2015,06,27,05,34,14.90
2015,06,27,05,35,14.90
2015,06,27,05,36,14.90
2015,06,27,05,37,14.90
2015,06,27,05,38,14.90
2015,06,27,05,39,14.90
2015,06,27,05,40,14.90
2015,06,27,05,41,14.90
2015,06,27,05,42,14.90
2015,06,27,05,43,14.90
2015,06,27,05,44,14.90
2015,06,27,05,45,14.80
2015,06,27,05,46,14.80
2015,06,27,05,47,14.80
2015,06,27,05,48,14.80
2015,06,27,05,49,14.80
2015,06,27,05,50,14.80
2015,06,27,05,51,14.70
2015,06,27,05,52,14.70
2015,06,27,05,53,14.70
2015,06,27,05,54,14.70
2015,06,27,05,55,14.70
2015,06,27,05,56,14.70
2015,06,27,05,57,14.70
2015,06,27,05,58,14.70
2015,06,27,05,59,14.70
2015,06,27,06,00,14.70
2015,06,27,06,01,14.70
2015,06,27,06,02,14.70
2015,06,27,06,03,14.70
2015,06,27,06,04,14.70
2015,06,27,06,05,14.80
2015,06,27,06,06,14.80
2015,06,27,06,07,14.80
2015,06,27,06,08,14.80
2015,06,27,06,09,14.90
2015,06,27,06,10,14.90
2015,06,27,06,11,14.90
2015,06,27,06,12,14.90
2015,06,27,06,13,15.00
2015,06,27,06,14,15.00
2015,06,27,06,15,15.00
2015,06,27,06,16,15.10
2015,06,27,06,17,15.10
2015,06,27,06,18,15.10
2015,06,27,06,19,15.10
2015,06,27,06,20,15.10
2015,06,27,06,21,15.10
2015,06,27,06,22,15.20
2015,06,27,06,23,15.10
2015,06,27,06,24,15.10
2015,06,27,06,25,15.10
2015,06,27,06,26,15.10
2015,06,27,06,27,15.10
2015,06,27,06,28,15.10
2015,06,27,06,29,15.10
2015,06,27,06,30,15.10
2015,06,27,06,31,15.10
2015,06,27,06,32,15.20
2015,06,27,06,33,15.20
2015,06,27,06,34,15.30
2015,06,27,06,35,15.40
2015,06,27,06,36,15.40
2015,06,27,06,37,15.50
2015,06,27,06,38,15.60
2015,06,27,06,39,15.70
2015,06,27,06,40,15.80
2015,06,27,06,41,15.90
2015,06,27,06,42,15.90
2015,06,27,06,43,16.00
2015,06,27,06,44,16.10
2015,06,27,06,45,16.10
2015,06,27,06,46,16.20
2015,06,27,06,47,16.20
2015,06,27,06,48,16.30
2015,06,27,06,49,16.30
2015,06,27,06,50,16.40
2015,06,27,06,51,16.50
2015,06,27,06,52,16.50
2015,06,27,06,53,16.60
2015,06,27,06,54,16.70
2015,06,27,06,55,16.70
2015,06,27,06,56,16.80
2015,06,27,06,57,16.90
2015,06,27,06,58,17.00
2015,06,27,06,59,17.00
2015,06,27,07,00,17.10
2015,06,27,07,01,17.10
2015,06,27,07,02,17.20
2015,06,27,07,03,17.20
2015,06,27,07,04,17.30
2015,06,27,07,05,17.30
2015,06,27,07,06,17.40
2015,06,27,07,07,17.50
2015,06,27,07,08,17.50
2015,06,27,07,09,17.60
2015,06,27,07,10,17.60
2015,06,27,07,11,17.70
2015,06,27,07,12,17.80
2015,06,27,07,13,17.80
2015,06,27,07,14,17.90
2015,06,27,07,15,18.00
2015,06,27,07,16,18.00
2015,06,27,07,17,18.10
2015,06,27,07,18,18.20
2015,06,27,07,19,18.20
2015,06,27,07,20,18.30
2015,06,27,07,21,18.30
2015,06,27,07,22,18.40
2015,06,27,07,23,18.40
2015,06,27,07,24,18.40
2015,06,27,07,25,18.40
2015,06,27,07,26,18.50
2015,06,27,07,27,18.50
2015,06,27,07,28,18.50
2015,06,27,07,29,18.60
2015,06,27,07,30,18.70
2015,06,27,07,31,18.80
2015,06,27,07,32,18.90
2015,06,27,07,33,19.00
2015,06,27,07,34,19.10
2015,06,27,07,35,19.20
2015,06,27,07,36,19.30
2015,06,27,07,37,19.40
2015,06,27,07,38,19.50
2015,06,27,07,39,19.60
2015,06,27,07,40,19.70
2015,06,27,07,41,19.70
2015,06,27,07,42,19.70
2015,06,27,07,43,19.70
2015,06,27,07,44,19.70
2015,06,27,07,45,19.80
2015,06,27,07,46,19.80
2015,06,27,07,47,19.80
2015,06,27,07,48,19.80
2015,06,27,07,49,19.80
2015,06,27,07,50,19.80
2015,06,27,07,51,19.80
2015,06,27,07,52,19.90
2015,06,27,07,53,19.90
2015,06,27,07,54,19.90
2015,06,27,07,55,20.00
2015,06,27,07,56,20.10
2015,06,27,07,57,20.10
2015,06,27,07,58,20.20
2015,06,27,07,59,20.20
2015,06,27,08,00,20.20
2015,06,27,08,01,20.30
2015,06,27,08,02,20.30
2015,06,27,08,03,20.30
2015,06,27,08,04,20.40
2015,06,27,08,05,20.40
2015,06,27,08,06,20.50
2015,06,27,08,07,20.50
2015,06,27,08,08,20.50
2015,06,27,08,09,20.60
2015,06,27,08,10,20.60
2015,06,27,08,11,20.70
2015,06,27,08,12,20.80
2015,06,27,08,13,20.80
2015,06,27,08,14,20.90
2015,06,27,08,15,21.00
2015,06,27,08,16,21.00
2015,06,27,08,17,21.10
2015,06,27,08,18,21.10
2015,06,27,08,19,21.20
2015,06,27,08,20,21.30
2015,06,27,08,21,21.30
2015,06,27,08,22,21.40
2015,06,27,08,23,21.50
2015,06,27,08,24,21.50
2015,06,27,08,25,21.60
2015,06,27,08,26,21.70
2015,06,27,08,27,21.80
2015,06,27,08,28,21.80
2015,06,27,08,29,21.90
2015,06,27,08,30,22.00
2015,06,27,08,31,22.00
2015,06,27,08,32,22.20
2015,06,27,08,33,22.20
2015,06,27,08,34,22.30
2015,06,27,08,35,22.40
2015,06,27,08,36,22.50
2015,06,27,08,37,22.70
2015,06,27,08,38,22.80
2015,06,27,08,39,22.90
2015,06,27,08,40,23.10
2015,06,27,08,41,23.20
2015,06,27,08,42,23.30
2015,06,27,08,43,23.40
2015,06,27,08,44,23.40
2015,06,27,08,45,23.50
2015,06,27,08,46,23.60
2015,06,27,08,47,23.60
2015,06,27,08,48,23.70
2015,06,27,08,49,23.80
2015,06,27,08,50,23.90
2015,06,27,08,51,23.90
2015,06,27,08,52,23.90
2015,06,27,08,53,23.90
2015,06,27,08,54,24.00
2015,06,27,08,55,24.00
2015,06,27,08,56,24.00
2015,06,27,08,57,24.00
2015,06,27,08,58,24.10
2015,06,27,08,59,24.10
2015,06,27,09,00,24.00
2015,06,27,09,01,23.90
2015,06,27,09,02,23.90
2015,06,27,09,03,23.90
2015,06,27,09,04,23.80
2015,06,27,09,05,23.80
2015,06,27,09,06,23.70
2015,06,27,09,07,23.70
2015,06,27,09,08,23.70
2015,06,27,09,09,23.60
2015,06,27,09,10,23.60
2015,06,27,09,11,23.60
2015,06,27,09,12,23.60
2015,06,27,09,13,23.50
2015,06,27,09,14,23.50
2015,06,27,09,15,23.40
2015,06,27,09,16,23.40
2015,06,27,09,17,23.40
2015,06,27,09,18,23.30
2015,06,27,09,19,23.30
2015,06,27,09,20,23.20
2015,06,27,09,21,23.20
2015,06,27,09,22,23.20
2015,06,27,09,23,23.20
2015,06,27,09,24,23.20
2015,06,27,09,25,23.10
2015,06,27,09,26,23.10
2015,06,27,09,27,23.10
2015,06,27,09,28,23.00
2015,06,27,09,29,22.90
2015,06,27,09,30,22.90
2015,06,27,09,31,22.90
2015,06,27,09,32,22.80
2015,06,27,09,33,22.80
2015,06,27,09,34,22.80
2015,06,27,09,35,22.70
2015,06,27,09,36,22.70
2015,06,27,09,37,22.70
2015,06,27,09,38,22.70
2015,06,27,09,39,22.70
2015,06,27,09,40,22.70
2015,06,27,09,41,22.70
2015,06,27,09,42,22.70
2015,06,27,09,43,22.70
2015,06,27,09,44,22.70
2015,06,27,09,45,22.70
2015,06,27,09,46,22.60
2015,06,27,09,47,22.60
2015,06,27,09,48,22.60
2015,06,27,09,49,22.60
2015,06,27,09,50,22.50
2015,06,27,09,51,22.50
2015,06,27,09,52,22.50
2015,06,27,09,53,22.50
2015,06,27,09,54,22.60
2015,06,27,09,55,22.60
2015,06,27,09,56,22.70
2015,06,27,09,57,22.70
2015,06,27,09,58,22.70
2015,06,27,09,59,22.80
2015,06,27,10,00,22.80
2015,06,27,10,01,22.80
2015,06,27,10,02,22.70
2015,06,27,10,03,22.40
2015,06,27,10,04,22.20
2015,06,27,10,05,22.00
2015,06,27,10,06,21.90
2015,06,27,10,07,21.80
2015,06,27,10,08,21.80
2015,06,27,10,09,21.80
2015,06,27,10,10,21.60
2015,06,27,10,11,21.50
2015,06,27,10,12,21.40
2015,06,27,10,13,21.30
2015,06,27,10,14,21.30
2015,06,27,10,15,21.30
2015,06,27,10,16,21.20
2015,06,27,10,17,21.10
2015,06,27,10,18,21.00
2015,06,27,10,19,21.00
2015,06,27,10,20,20.90
2015,06,27,10,21,21.00
2015,06,27,10,22,21.00
2015,06,27,10,23,21.00
2015,06,27,10,24,21.00
2015,06,27,10,25,20.90
2015,06,27,10,26,20.90
2015,06,27,10,27,21.00
2015,06,27,10,28,21.10
2015,06,27,10,29,21.10
2015,06,27,10,30,21.10
2015,06,27,10,31,21.00
2015,06,27,10,32,21.00
2015,06,27,10,33,21.10
2015,06,27,10,34,21.10
2015,06,27,10,35,21.10
2015,06,27,10,36,21.00
2015,06,27,10,37,21.00
2015,06,27,10,38,21.10
2015,06,27,10,39,21.20
2015,06,27,10,40,21.30
2015,06,27,10,41,21.40
2015,06,27,10,42,21.50
2015,06,27,10,43,21.60
2015,06,27,10,44,21.70
2015,06,27,10,45,21.80
2015,06,27,10,46,21.80
2015,06,27,10,47,21.90
2015,06,27,10,48,22.00
2015,06,27,10,49,22.10
2015,06,27,10,50,22.20
2015,06,27,10,51,22.20
2015,06,27,10,52,22.30
2015,06,27,10,53,22.40
2015,06,27,10,54,22.50
2015,06,27,10,55,22.60
2015,06,27,10,56,22.80
2015,06,27,10,57,22.90
2015,06,27,10,58,23.00
2015,06,27,10,59,23.20
2015,06,27,11,00,23.30
2015,06,27,11,01,23.50
2015,06,27,11,02,23.60
2015,06,27,11,03,23.80
2015,06,27,11,04,24.00
2015,06,27,11,05,24.10
2015,06,27,11,06,24.30
2015,06,27,11,07,24.40
2015,06,27,11,08,24.50
2015,06,27,11,09,24.50
2015,06,27,11,10,24.60
2015,06,27,11,11,24.70
2015,06,27,11,12,24.80
2015,06,27,11,13,24.80
2015,06,27,11,14,24.90
2015,06,27,11,15,25.00
2015,06,27,11,16,25.10
2015,06,27,11,17,25.20
2015,06,27,11,18,25.20
2015,06,27,11,19,25.20
2015,06,27,11,20,25.20
2015,06,27,11,21,25.20
2015,06,27,11,22,25.20
2015,06,27,11,23,25.30
2015,06,27,11,24,25.30
2015,06,27,11,25,25.20
2015,06,27,11,26,25.20
2015,06,27,11,27,25.20
2015,06,27,11,28,25.20
2015,06,27,11,29,25.20
2015,06,27,11,30,25.30
2015,06,27,11,31,25.30
2015,06,27,11,32,25.40
2015,06,27,11,33,25.50
2015,06,27,11,34,25.60
2015,06,27,11,35,25.60
2015,06,27,11,36,25.50
2015,06,27,11,37,25.60
2015,06,27,11,38,25.50
2015,06,27,11,39,25.50
2015,06,27,11,40,25.40
2015,06,27,11,41,25.30
2015,06,27,11,42,25.10
2015,06,27,11,43,25.00
2015,06,27,11,44,24.90
2015,06,27,11,45,24.90
2015,06,27,11,46,24.90
2015,06,27,11,47,24.90
2015,06,27,11,48,25.00
2015,06,27,11,49,25.00
2015,06,27,11,50,25.00
2015,06,27,11,51,25.00
2015,06,27,11,52,25.10
2015,06,27,11,53,25.10
2015,06,27,11,54,25.20
2015,06,27,11,55,25.20
2015,06,27,11,56,25.10
2015,06,27,11,57,25.10
2015,06,27,11,58,25.20
2015,06,27,11,59,25.20
2015,06,27,12,00,25.20
2015,06,27,12,01,25.30
2015,06,27,12,02,25.30
2015,06,27,12,03,25.30
2015,06,27,12,04,25.40
2015,06,27,12,05,25.50
2015,06,27,12,06,25.50
2015,06,27,12,07,25.60
2015,06,27,12,08,25.70
2015,06,27,12,09,25.70
2015,06,27,12,10,25.80
2015,06,27,12,11,25.70
2015,06,27,12,12,25.80
2015,06,27,12,13,25.80
2015,06,27,12,14,25.90
2015,06,27,12,15,26.00
2015,06,27,12,16,26.10
2015,06,27,12,17,26.20
2015,06,27,12,18,26.20
2015,06,27,12,19,26.30
2015,06,27,12,20,26.40
2015,06,27,12,21,26.50
2015,06,27,12,22,26.50
2015,06,27,12,23,26.60
2015,06,27,12,24,26.60
2015,06,27,12,25,26.60
2015,06,27,12,26,26.60
2015,06,27,12,27,26.60
2015,06,27,12,28,26.60
2015,06,27,12,29,26.60
2015,06,27,12,30,26.60
2015,06,27,12,31,26.70
2015,06,27,12,32,26.80
2015,06,27,12,33,27.00
2015,06,27,12,34,27.00
2015,06,27,12,35,27.10
2015,06,27,12,36,27.20
2015,06,27,12,37,27.20
2015,06,27,12,38,27.20
2015,06,27,12,39,27.20
2015,06,27,12,40,27.20
2015,06,27,12,41,27.20
2015,06,27,12,42,27.20
2015,06,27,12,43,27.30
2015,06,27,12,44,27.40
2015,06,27,12,45,27.60
2015,06,27,12,46,27.70
2015,06,27,12,47,27.90
2015,06,27,12,48,28.00
2015,06,27,12,49,28.20
2015,06,27,12,50,28.20
2015,06,27,12,51,28.20
2015,06,27,12,52,28.30
2015,06,27,12,53,28.30
2015,06,27,12,54,28.30
2015,06,27,12,55,28.20
2015,06,27,12,56,28.20
2015,06,27,12,57,28.20
2015,06,27,12,58,28.10
2015,06,27,12,59,28.20
2015,06,27,13,00,28.20
2015,06,27,13,01,28.30
2015,06,27,13,02,28.40
2015,06,27,13,03,28.40
2015,06,27,13,04,28.40
2015,06,27,13,05,28.40
2015,06,27,13,06,28.40
2015,06,27,13,07,28.30
2015,06,27,13,08,28.10
2015,06,27,13,09,28.00
2015,06,27,13,10,28.00
2015,06,27,13,11,27.80
2015,06,27,13,12,27.80
2015,06,27,13,13,27.70
2015,06,27,13,14,27.60
2015,06,27,13,15,27.50
2015,06,27,13,16,27.60
2015,06,27,13,17,27.60
2015,06,27,13,18,27.50
2015,06,27,13,19,27.30
2015,06,27,13,20,27.10
2015,06,27,13,21,27.00
2015,06,27,13,22,27.00
2015,06,27,13,23,27.00
2015,06,27,13,24,27.10
2015,06,27,13,25,27.20
2015,06,27,13,26,27.30
2015,06,27,13,27,27.30
2015,06,27,13,28,27.40
2015,06,27,13,29,27.50
2015,06,27,13,30,27.50
2015,06,27,13,31,27.60
2015,06,27,13,32,27.50
2015,06,27,13,33,27.50
2015,06,27,13,34,27.40
2015,06,27,13,35,27.50
2015,06,27,13,36,27.60
2015,06,27,13,37,27.70
2015,06,27,13,38,27.70
2015,06,27,13,39,27.80
2015,06,27,13,40,27.80
2015,06,27,13,41,27.80
2015,06,27,13,42,27.80
2015,06,27,13,43,27.80
2015,06,27,13,44,27.90
2015,06,27,13,45,28.00
2015,06,27,13,46,28.10
2015,06,27,13,47,28.20
2015,06,27,13,48,28.30
2015,06,27,13,49,28.30
2015,06,27,13,50,28.20
2015,06,27,13,51,28.00
2015,06,27,13,52,27.90
2015,06,27,13,53,27.90
2015,06,27,13,54,27.90
2015,06,27,13,55,28.10
2015,06,27,13,56,28.30
2015,06,27,13,57,28.30
2015,06,27,13,58,28.40
2015,06,27,13,59,28.40
2015,06,27,14,00,28.50
2015,06,27,14,01,28.50
2015,06,27,14,02,28.50
2015,06,27,14,03,28.60
2015,06,27,14,04,28.60
2015,06,27,14,05,28.60
2015,06,27,14,06,28.70
2015,06,27,14,07,28.70
2015,06,27,14,08,28.70
2015,06,27,14,09,28.70
2015,06,27,14,10,28.70
2015,06,27,14,11,28.70
2015,06,27,14,12,28.70
2015,06,27,14,13,28.70
2015,06,27,14,14,28.70
2015,06,27,14,15,28.70
2015,06,27,14,16,28.70
2015,06,27,14,17,28.70
2015,06,27,14,18,28.70
2015,06,27,14,19,28.60
2015,06,27,14,20,28.60
2015,06,27,14,21,28.60
2015,06,27,14,22,28.70
2015,06,27,14,23,28.70
2015,06,27,14,24,28.70
2015,06,27,14,25,28.70
2015,06,27,14,26,28.60
2015,06,27,14,27,28.60
2015,06,27,14,28,28.60
2015,06,27,14,29,28.60
2015,06,27,14,30,28.60
2015,06,27,14,31,28.60
2015,06,27,14,32,28.70
2015,06,27,14,33,28.80
2015,06,27,14,34,28.80
2015,06,27,14,35,28.70
2015,06,27,14,36,28.70
2015,06,27,14,37,28.70
2015,06,27,14,38,28.70
2015,06,27,14,39,28.80
2015,06,27,14,40,28.80
2015,06,27,14,41,28.80
2015,06,27,14,42,28.80
2015,06,27,14,43,28.80
2015,06,27,14,44,28.80
2015,06,27,14,45,28.70
2015,06,27,14,46,28.70
2015,06,27,14,47,28.60
2015,06,27,14,48,28.60
2015,06,27,14,49,28.40
2015,06,27,14,50,28.40
2015,06,27,14,51,28.40
2015,06,27,14,52,28.40
2015,06,27,14,53,28.40
2015,06,27,14,54,28.30
2015,06,27,14,55,28.20
2015,06,27,14,56,28.20
2015,06,27,14,57,28.20
2015,06,27,14,58,28.30
2015,06,27,14,59,28.40
2015,06,27,15,00,28.40
2015,06,27,15,01,28.40
2015,06,27,15,02,28.40
2015,06,27,15,03,28.50
2015,06,27,15,04,28.50
2015,06,27,15,05,28.40
2015,06,27,15,06,28.20
2015,06,27,15,07,28.10
2015,06,27,15,08,28.10
2015,06,27,15,09,28.10
2015,06,27,15,10,28.20
2015,06,27,15,11,28.40
2015,06,27,15,12,28.50
2015,06,27,15,13,28.50
2015,06,27,15,14,28.40
2015,06,27,15,15,28.40
2015,06,27,15,16,28.50
2015,06,27,15,17,28.60
2015,06,27,15,18,28.80
2015,06,27,15,19,28.90
2015,06,27,15,20,28.80
2015,06,27,15,21,28.80
2015,06,27,15,22,28.80
2015,06,27,15,23,28.80
2015,06,27,15,24,28.80
2015,06,27,15,25,28.90
2015,06,27,15,26,29.00
2015,06,27,15,27,29.10
2015,06,27,15,28,29.20
2015,06,27,15,29,29.30
2015,06,27,15,30,29.40
2015,06,27,15,31,29.40
2015,06,27,15,32,29.50
2015,06,27,15,33,29.60
2015,06,27,15,34,29.60
2015,06,27,15,35,29.50
2015,06,27,15,36,29.50
2015,06,27,15,37,29.50
2015,06,27,15,38,29.50
2015,06,27,15,39,29.50
2015,06,27,15,40,29.50
2015,06,27,15,41,29.50
2015,06,27,15,42,29.50
2015,06,27,15,43,29.40
2015,06,27,15,44,29.40
2015,06,27,15,45,29.40
2015,06,27,15,46,29.40
2015,06,27,15,47,29.40
2015,06,27,15,48,29.50
2015,06,27,15,49,29.60
2015,06,27,15,50,29.50
2015,06,27,15,51,29.50
2015,06,27,15,52,29.40
2015,06,27,15,53,29.50
2015,06,27,15,54,29.70
2015,06,27,15,55,29.80
2015,06,27,15,56,29.90
2015,06,27,15,57,30.00
2015,06,27,15,58,30.00
2015,06,27,15,59,30.00
2015,06,27,16,00,30.00
2015,06,27,16,01,30.00
2015,06,27,16,02,30.00
2015,06,27,16,03,29.80
2015,06,27,16,04,29.60
2015,06,27,16,05,29.60
2015,06,27,16,06,29.60
2015,06,27,16,07,29.60
2015,06,27,16,08,29.60
2015,06,27,16,09,29.60
2015,06,27,16,10,29.50
2015,06,27,16,11,29.40
2015,06,27,16,12,29.50
2015,06,27,16,13,29.60
2015,06,27,16,14,29.80
2015,06,27,16,15,29.90
2015,06,27,16,16,30.10
2015,06,27,16,17,30.30
2015,06,27,16,18,30.40
2015,06,27,16,19,30.50
2015,06,27,16,20,30.60
2015,06,27,16,21,30.50
2015,06,27,16,22,30.30
2015,06,27,16,23,30.20
2015,06,27,16,24,30.10
2015,06,27,16,25,30.10
2015,06,27,16,26,30.00
2015,06,27,16,27,29.90
2015,06,27,16,28,29.80
2015,06,27,16,29,29.70
2015,06,27,16,30,29.70
2015,06,27,16,31,29.80
2015,06,27,16,32,29.80
2015,06,27,16,33,29.80
2015,06,27,16,34,29.80
2015,06,27,16,35,29.80
2015,06,27,16,36,29.70
2015,06,27,16,37,29.70
2015,06,27,16,38,29.70
2015,06,27,16,39,29.70
2015,06,27,16,40,29.70
2015,06,27,16,41,29.70
2015,06,27,16,42,29.70
2015,06,27,16,43,29.70
2015,06,27,16,44,29.70
2015,06,27,16,45,29.60
2015,06,27,16,46,29.50
2015,06,27,16,47,29.40
2015,06,27,16,48,29.30
2015,06,27,16,49,29.20
2015,06,27,16,50,29.10
2015,06,27,16,51,28.90
2015,06,27,16,52,28.90
2015,06,27,16,53,28.80
2015,06,27,16,54,28.80
2015,06,27,16,55,28.80
2015,06,27,16,56,28.80
2015,06,27,16,57,28.90
2015,06,27,16,58,28.90
2015,06,27,16,59,28.90
2015,06,27,17,00,28.90
2015,06,27,17,01,28.90
2015,06,27,17,02,28.90
2015,06,27,17,03,29.00
2015,06,27,17,04,29.10
2015,06,27,17,05,29.20
2015,06,27,17,06,29.20
2015,06,27,17,07,29.20
2015,06,27,17,08,29.20
2015,06,27,17,09,29.20
2015,06,27,17,10,29.20
2015,06,27,17,11,29.20
2015,06,27,17,12,29.20
2015,06,27,17,13,29.30
2015,06,27,17,14,29.30
2015,06,27,17,15,29.30
2015,06,27,17,16,29.30
2015,06,27,17,17,29.40
2015,06,27,17,18,29.40
2015,06,27,17,19,29.40